Voltar ao catálogo

STARLINK-35213

AtivoComunicaçõesVLEO
NORAD 65638·PAYLOAD·🇺🇸 United States

Lançado Sep 18, 2025 de Cape Canaveral Space Force Station

Loading…

Próximas Passagens (próximas 24 horas)

TLE

AtualizadoSource: CelesTrak SupGP

Época: Sep 14, 2026, 22:48 UTC

1 65638C 25210S   26257.95048611 -.00065529  00000+0 -19360-2 0  2570
2 65638  53.1565 143.6696 0001332  97.7933  82.2470 15.34424362    15

Acompanhe STARLINK-35213 em tempo real com AllMySat

Download on the App Store